カタログに戻る

EKRAN 2 DEB

運用中GEO
NORAD 11581·DEBRIS·🇷🇺 Russia

打ち上げ Sep 20, 1977 から Baikonur Cosmodrome

Loading…

TLE

最新Source: Space-Track

元期: Sep 14, 2026, 14:13 UTC

1 11581U 77092H   26257.59304109 -.00000260  00000-0  00000-0 0  9993
2 11581   3.9164 272.7926 0019245 270.9045 113.5277  1.00375189105268

AllMySatでEKRAN 2 DEBをリアルタイム追跡

Download on the App Store